Year,Month,Day,Hour,Minute,Value (Times are PST for temperature in C)
2008,07,26,00,00,17.90
2008,07,26,00,01,17.90
2008,07,26,00,02,17.90
2008,07,26,00,03,17.90
2008,07,26,00,04,17.80
2008,07,26,00,05,17.80
2008,07,26,00,06,17.90
2008,07,26,00,07,17.90
2008,07,26,00,08,17.90
2008,07,26,00,09,17.90
2008,07,26,00,10,17.90
2008,07,26,00,11,18.00
2008,07,26,00,12,18.10
2008,07,26,00,13,18.00
2008,07,26,00,14,17.90
2008,07,26,00,15,18.00
2008,07,26,00,16,18.00
2008,07,26,00,17,18.10
2008,07,26,00,18,18.10
2008,07,26,00,19,18.10
2008,07,26,00,20,18.00
2008,07,26,00,21,17.90
2008,07,26,00,22,17.90
2008,07,26,00,23,17.90
2008,07,26,00,24,17.90
2008,07,26,00,25,17.90
2008,07,26,00,26,17.90
2008,07,26,00,27,17.90
2008,07,26,00,28,17.90
2008,07,26,00,29,17.90
2008,07,26,00,30,17.90
2008,07,26,00,31,17.90
2008,07,26,00,32,17.90
2008,07,26,00,33,17.80
2008,07,26,00,34,17.70
2008,07,26,00,35,17.70
2008,07,26,00,36,17.70
2008,07,26,00,37,17.60
2008,07,26,00,38,17.60
2008,07,26,00,39,17.60
2008,07,26,00,40,17.60
2008,07,26,00,41,17.50
2008,07,26,00,42,17.50
2008,07,26,00,43,17.50
2008,07,26,00,44,17.40
2008,07,26,00,45,17.40
2008,07,26,00,46,17.40
2008,07,26,00,47,17.40
2008,07,26,00,48,17.30
2008,07,26,00,49,17.30
2008,07,26,00,50,17.30
2008,07,26,00,51,17.30
2008,07,26,00,52,17.20
2008,07,26,00,53,17.20
2008,07,26,00,54,17.20
2008,07,26,00,55,17.20
2008,07,26,00,56,17.20
2008,07,26,00,57,17.20
2008,07,26,00,58,17.20
2008,07,26,00,59,17.20
2008,07,26,01,00,17.20
2008,07,26,01,01,17.20
2008,07,26,01,02,17.20
2008,07,26,01,03,17.20
2008,07,26,01,04,17.20
2008,07,26,01,05,17.30
2008,07,26,01,06,17.30
2008,07,26,01,07,17.30
2008,07,26,01,08,17.30
2008,07,26,01,09,17.40
2008,07,26,01,10,17.40
2008,07,26,01,11,17.40
2008,07,26,01,12,17.40
2008,07,26,01,13,17.50
2008,07,26,01,14,17.50
2008,07,26,01,15,17.50
2008,07,26,01,16,17.50
2008,07,26,01,17,17.50
2008,07,26,01,18,17.60
2008,07,26,01,19,17.60
2008,07,26,01,20,17.70
2008,07,26,01,21,17.70
2008,07,26,01,22,17.70
2008,07,26,01,23,17.70
2008,07,26,01,24,17.60
2008,07,26,01,25,17.60
2008,07,26,01,26,17.60
2008,07,26,01,27,17.60
2008,07,26,01,28,17.50
2008,07,26,01,29,17.50
2008,07,26,01,30,17.50
2008,07,26,01,31,17.50
2008,07,26,01,32,17.50
2008,07,26,01,33,17.50
2008,07,26,01,34,17.50
2008,07,26,01,35,17.50
2008,07,26,01,36,17.50
2008,07,26,01,37,17.50
2008,07,26,01,38,17.50
2008,07,26,01,39,17.50
2008,07,26,01,40,17.50
2008,07,26,01,41,17.50
2008,07,26,01,42,17.50
2008,07,26,01,43,17.50
2008,07,26,01,44,17.50
2008,07,26,01,45,17.50
2008,07,26,01,46,17.50
2008,07,26,01,47,17.50
2008,07,26,01,48,17.60
2008,07,26,01,49,17.50
2008,07,26,01,50,17.50
2008,07,26,01,51,17.50
2008,07,26,01,52,17.50
2008,07,26,01,53,17.50
2008,07,26,01,54,17.50
2008,07,26,01,55,17.50
2008,07,26,01,56,17.50
2008,07,26,01,57,17.50
2008,07,26,01,58,17.50
2008,07,26,01,59,17.50
2008,07,26,02,00,17.40
2008,07,26,02,01,17.40
2008,07,26,02,02,17.40
2008,07,26,02,03,17.40
2008,07,26,02,04,17.40
2008,07,26,02,05,17.40
2008,07,26,02,06,17.30
2008,07,26,02,07,17.30
2008,07,26,02,08,17.30
2008,07,26,02,09,17.30
2008,07,26,02,10,17.30
2008,07,26,02,11,17.30
2008,07,26,02,12,17.30
2008,07,26,02,13,17.30
2008,07,26,02,14,17.30
2008,07,26,02,15,17.30
2008,07,26,02,16,17.20
2008,07,26,02,17,17.20
2008,07,26,02,18,17.10
2008,07,26,02,19,17.10
2008,07,26,02,20,17.00
2008,07,26,02,21,17.00
2008,07,26,02,22,16.90
2008,07,26,02,23,16.90
2008,07,26,02,24,16.80
2008,07,26,02,25,16.80
2008,07,26,02,26,16.70
2008,07,26,02,27,16.70
2008,07,26,02,28,16.70
2008,07,26,02,29,16.70
2008,07,26,02,30,16.70
2008,07,26,02,31,16.70
2008,07,26,02,32,16.70
2008,07,26,02,33,16.60
2008,07,26,02,34,16.60
2008,07,26,02,35,16.60
2008,07,26,02,36,16.40
2008,07,26,02,37,16.40
2008,07,26,02,38,16.40
2008,07,26,02,39,16.40
2008,07,26,02,40,16.40
2008,07,26,02,41,16.40
2008,07,26,02,42,16.40
2008,07,26,02,43,16.40
2008,07,26,02,44,16.40
2008,07,26,02,45,16.30
2008,07,26,02,46,16.30
2008,07,26,02,47,16.30
2008,07,26,02,48,16.30
2008,07,26,02,49,16.30
2008,07,26,02,50,16.30
2008,07,26,02,51,16.30
2008,07,26,02,52,16.20
2008,07,26,02,53,16.20
2008,07,26,02,54,16.20
2008,07,26,02,55,16.10
2008,07,26,02,56,16.10
2008,07,26,02,57,16.10
2008,07,26,02,58,16.10
2008,07,26,02,59,16.00
2008,07,26,03,00,15.90
2008,07,26,03,01,15.90
2008,07,26,03,02,15.90
2008,07,26,03,03,15.90
2008,07,26,03,04,15.90
2008,07,26,03,05,15.80
2008,07,26,03,06,15.80
2008,07,26,03,07,15.80
2008,07,26,03,08,15.80
2008,07,26,03,09,15.80
2008,07,26,03,10,15.80
2008,07,26,03,11,15.80
2008,07,26,03,12,15.80
2008,07,26,03,13,15.80
2008,07,26,03,14,15.80
2008,07,26,03,15,15.80
2008,07,26,03,16,15.70
2008,07,26,03,17,15.70
2008,07,26,03,18,15.70
2008,07,26,03,19,15.70
2008,07,26,03,20,15.70
2008,07,26,03,21,15.70
2008,07,26,03,22,15.70
2008,07,26,03,23,15.60
2008,07,26,03,24,15.60
2008,07,26,03,25,15.60
2008,07,26,03,26,15.60
2008,07,26,03,27,15.60
2008,07,26,03,28,15.50
2008,07,26,03,29,15.50
2008,07,26,03,30,15.50
2008,07,26,03,31,15.50
2008,07,26,03,32,15.50
2008,07,26,03,33,15.50
2008,07,26,03,34,15.50
2008,07,26,03,35,15.50
2008,07,26,03,36,15.50
2008,07,26,03,37,15.50
2008,07,26,03,38,15.50
2008,07,26,03,39,15.60
2008,07,26,03,40,15.60
2008,07,26,03,41,15.60
2008,07,26,03,42,15.60
2008,07,26,03,43,15.60
2008,07,26,03,44,15.70
2008,07,26,03,45,15.70
2008,07,26,03,46,15.70
2008,07,26,03,47,15.70
2008,07,26,03,48,15.70
2008,07,26,03,49,15.60
2008,07,26,03,50,15.50
2008,07,26,03,51,15.50
2008,07,26,03,52,15.40
2008,07,26,03,53,15.30
2008,07,26,03,54,15.30
2008,07,26,03,55,15.30
2008,07,26,03,56,15.20
2008,07,26,03,57,15.20
2008,07,26,03,58,15.20
2008,07,26,03,59,15.20
2008,07,26,04,00,15.10
2008,07,26,04,01,15.10
2008,07,26,04,02,15.10
2008,07,26,04,03,15.10
2008,07,26,04,04,15.10
2008,07,26,04,05,15.00
2008,07,26,04,06,15.00
2008,07,26,04,07,14.90
2008,07,26,04,08,14.90
2008,07,26,04,09,14.80
2008,07,26,04,10,14.80
2008,07,26,04,11,14.80
2008,07,26,04,12,14.80
2008,07,26,04,13,14.70
2008,07,26,04,14,14.70
2008,07,26,04,15,14.70
2008,07,26,04,16,14.70
2008,07,26,04,17,14.60
2008,07,26,04,18,14.60
2008,07,26,04,19,14.50
2008,07,26,04,20,14.50
2008,07,26,04,21,14.40
2008,07,26,04,22,14.30
2008,07,26,04,23,14.30
2008,07,26,04,24,14.30
2008,07,26,04,25,14.20
2008,07,26,04,26,14.20
2008,07,26,04,27,14.20
2008,07,26,04,28,14.20
2008,07,26,04,29,14.20
2008,07,26,04,30,14.20
2008,07,26,04,31,14.20
2008,07,26,04,32,14.20
2008,07,26,04,33,14.10
2008,07,26,04,34,14.10
2008,07,26,04,35,14.10
2008,07,26,04,36,14.10
2008,07,26,04,37,14.10
2008,07,26,04,38,14.10
2008,07,26,04,39,14.10
2008,07,26,04,40,14.10
2008,07,26,04,41,14.10
2008,07,26,04,42,14.10
2008,07,26,04,43,14.10
2008,07,26,04,44,14.10
2008,07,26,04,45,14.10
2008,07,26,04,46,14.10
2008,07,26,04,47,14.10
2008,07,26,04,48,14.10
2008,07,26,04,49,14.00
2008,07,26,04,50,14.00
2008,07,26,04,51,14.00
2008,07,26,04,52,14.00
2008,07,26,04,53,14.00
2008,07,26,04,54,14.00
2008,07,26,04,55,14.00
2008,07,26,04,56,13.90
2008,07,26,04,57,13.90
2008,07,26,04,58,13.90
2008,07,26,04,59,13.90
2008,07,26,05,00,13.90
2008,07,26,05,01,13.80
2008,07,26,05,02,13.80
2008,07,26,05,03,13.80
2008,07,26,05,04,13.70
2008,07,26,05,05,13.70
2008,07,26,05,06,13.70
2008,07,26,05,07,13.70
2008,07,26,05,08,13.70
2008,07,26,05,09,13.60
2008,07,26,05,10,13.60
2008,07,26,05,11,13.60
2008,07,26,05,12,13.50
2008,07,26,05,13,13.50
2008,07,26,05,14,13.50
2008,07,26,05,15,13.50
2008,07,26,05,16,13.50
2008,07,26,05,17,13.40
2008,07,26,05,18,13.40
2008,07,26,05,19,13.40
2008,07,26,05,20,13.30
2008,07,26,05,21,13.30
2008,07,26,05,22,13.30
2008,07,26,05,23,13.30
2008,07,26,05,24,13.30
2008,07,26,05,25,13.30
2008,07,26,05,26,13.30
2008,07,26,05,27,13.20
2008,07,26,05,28,13.20
2008,07,26,05,29,13.20
2008,07,26,05,30,13.20
2008,07,26,05,31,13.10
2008,07,26,05,32,13.10
2008,07,26,05,33,13.00
2008,07,26,05,34,13.00
2008,07,26,05,35,12.90
2008,07,26,05,36,12.90
2008,07,26,05,37,12.90
2008,07,26,05,38,12.90
2008,07,26,05,39,12.90
2008,07,26,05,40,12.90
2008,07,26,05,41,12.90
2008,07,26,05,42,12.90
2008,07,26,05,43,12.90
2008,07,26,05,44,12.90
2008,07,26,05,45,12.90
2008,07,26,05,46,12.80
2008,07,26,05,47,12.80
2008,07,26,05,48,12.80
2008,07,26,05,49,12.80
2008,07,26,05,50,12.80
2008,07,26,05,51,12.80
2008,07,26,05,52,12.80
2008,07,26,05,53,12.80
2008,07,26,05,54,12.80
2008,07,26,05,55,12.80
2008,07,26,05,56,12.70
2008,07,26,05,57,12.70
2008,07,26,05,58,12.70
2008,07,26,05,59,12.70
2008,07,26,06,00,12.60
2008,07,26,06,01,12.60
2008,07,26,06,02,12.60
2008,07,26,06,03,12.60
2008,07,26,06,04,12.60
2008,07,26,06,05,12.50
2008,07,26,06,06,12.50
2008,07,26,06,07,12.50
2008,07,26,06,08,12.50
2008,07,26,06,09,12.50
2008,07,26,06,10,12.50
2008,07,26,06,11,12.50
2008,07,26,06,12,12.50
2008,07,26,06,13,12.60
2008,07,26,06,14,12.60
2008,07,26,06,15,12.60
2008,07,26,06,16,12.60
2008,07,26,06,17,12.50
2008,07,26,06,18,12.50
2008,07,26,06,19,12.50
2008,07,26,06,20,12.50
2008,07,26,06,21,12.50
2008,07,26,06,22,12.50
2008,07,26,06,23,12.50
2008,07,26,06,24,12.50
2008,07,26,06,25,12.50
2008,07,26,06,26,12.50
2008,07,26,06,27,12.50
2008,07,26,06,28,12.50
2008,07,26,06,29,12.50
2008,07,26,06,30,12.50
2008,07,26,06,31,12.50
2008,07,26,06,32,12.60
2008,07,26,06,33,12.60
2008,07,26,06,34,12.60
2008,07,26,06,35,12.60
2008,07,26,06,36,12.60
2008,07,26,06,37,12.60
2008,07,26,06,38,12.70
2008,07,26,06,39,12.70
2008,07,26,06,40,12.80
2008,07,26,06,41,12.80
2008,07,26,06,42,12.80
2008,07,26,06,43,12.80
2008,07,26,06,44,12.80
2008,07,26,06,45,12.80
2008,07,26,06,46,12.90
2008,07,26,06,47,12.90
2008,07,26,06,48,13.00
2008,07,26,06,49,13.00
2008,07,26,06,50,13.00
2008,07,26,06,51,13.10
2008,07,26,06,52,13.10
2008,07,26,06,53,13.10
2008,07,26,06,54,13.20
2008,07,26,06,55,13.20
2008,07,26,06,56,13.20
2008,07,26,06,57,13.30
2008,07,26,06,58,13.30
2008,07,26,06,59,13.40
2008,07,26,07,00,13.50
2008,07,26,07,01,13.50
2008,07,26,07,02,13.60
2008,07,26,07,03,13.60
2008,07,26,07,04,13.70
2008,07,26,07,05,13.70
2008,07,26,07,06,13.70
2008,07,26,07,07,13.70
2008,07,26,07,08,13.70
2008,07,26,07,09,13.70
2008,07,26,07,10,13.80
2008,07,26,07,11,13.80
2008,07,26,07,12,13.90
2008,07,26,07,13,13.90
2008,07,26,07,14,14.00
2008,07,26,07,15,14.00
2008,07,26,07,16,14.00
2008,07,26,07,17,14.10
2008,07,26,07,18,14.10
2008,07,26,07,19,14.20
2008,07,26,07,20,14.20
2008,07,26,07,21,14.20
2008,07,26,07,22,14.20
2008,07,26,07,23,14.30
2008,07,26,07,24,14.30
2008,07,26,07,25,14.40
2008,07,26,07,26,14.50
2008,07,26,07,27,14.50
2008,07,26,07,28,14.60
2008,07,26,07,29,14.60
2008,07,26,07,30,14.70
2008,07,26,07,31,14.70
2008,07,26,07,32,14.80
2008,07,26,07,33,14.80
2008,07,26,07,34,14.80
2008,07,26,07,35,14.80
2008,07,26,07,36,14.80
2008,07,26,07,37,14.90
2008,07,26,07,38,14.90
2008,07,26,07,39,14.90
2008,07,26,07,40,14.90
2008,07,26,07,41,15.00
2008,07,26,07,42,15.00
2008,07,26,07,43,15.10
2008,07,26,07,44,15.10
2008,07,26,07,45,15.10
2008,07,26,07,46,15.20
2008,07,26,07,47,15.20
2008,07,26,07,48,15.30
2008,07,26,07,49,15.30
2008,07,26,07,50,15.30
2008,07,26,07,51,15.30
2008,07,26,07,52,15.30
2008,07,26,07,53,15.30
2008,07,26,07,54,15.30
2008,07,26,07,55,15.30
2008,07,26,07,56,15.40
2008,07,26,07,57,15.40
2008,07,26,07,58,15.40
2008,07,26,07,59,15.50
2008,07,26,08,00,15.50
2008,07,26,08,01,15.40
2008,07,26,08,02,15.40
2008,07,26,08,03,15.30
2008,07,26,08,04,15.30
2008,07,26,08,05,15.30
2008,07,26,08,06,15.30
2008,07,26,08,07,15.30
2008,07,26,08,08,15.30
2008,07,26,08,09,15.30
2008,07,26,08,10,15.30
2008,07,26,08,11,15.30
2008,07,26,08,12,15.30
2008,07,26,08,13,15.30
2008,07,26,08,14,15.30
2008,07,26,08,15,15.30
2008,07,26,08,16,15.30
2008,07,26,08,17,15.30
2008,07,26,08,18,15.30
2008,07,26,08,19,15.40
2008,07,26,08,20,15.40
2008,07,26,08,21,15.30
2008,07,26,08,22,15.30
2008,07,26,08,23,15.30
2008,07,26,08,24,15.30
2008,07,26,08,25,15.30
2008,07,26,08,26,15.30
2008,07,26,08,27,15.30
2008,07,26,08,28,15.30
2008,07,26,08,29,15.30
2008,07,26,08,30,15.30
2008,07,26,08,31,15.40
2008,07,26,08,32,15.40
2008,07,26,08,33,15.40
2008,07,26,08,34,15.40
2008,07,26,08,35,15.40
2008,07,26,08,36,15.40
2008,07,26,08,37,15.40
2008,07,26,08,38,15.40
2008,07,26,08,39,15.40
2008,07,26,08,40,15.40
2008,07,26,08,41,15.40
2008,07,26,08,42,15.40
2008,07,26,08,43,15.40
2008,07,26,08,44,15.40
2008,07,26,08,45,15.40
2008,07,26,08,46,15.40
2008,07,26,08,47,15.40
2008,07,26,08,48,15.40
2008,07,26,08,49,15.40
2008,07,26,08,50,15.40
2008,07,26,08,51,15.50
2008,07,26,08,52,15.50
2008,07,26,08,53,15.50
2008,07,26,08,54,15.50
2008,07,26,08,55,15.50
2008,07,26,08,56,15.60
2008,07,26,08,57,15.60
2008,07,26,08,58,15.60
2008,07,26,08,59,15.70
2008,07,26,09,00,15.70
2008,07,26,09,01,15.80
2008,07,26,09,02,15.80
2008,07,26,09,03,15.80
2008,07,26,09,04,15.80
2008,07,26,09,05,15.80
2008,07,26,09,06,15.80
2008,07,26,09,07,15.80
2008,07,26,09,08,15.60
2008,07,26,09,09,15.40
2008,07,26,09,10,15.30
2008,07,26,09,11,15.30
2008,07,26,09,12,15.20
2008,07,26,09,13,15.20
2008,07,26,09,14,15.20
2008,07,26,09,15,15.20
2008,07,26,09,16,15.20
2008,07,26,09,17,15.20
2008,07,26,09,18,15.20
2008,07,26,09,19,15.20
2008,07,26,09,20,15.30
2008,07,26,09,21,15.30
2008,07,26,09,22,15.30
2008,07,26,09,23,15.30
2008,07,26,09,24,15.40
2008,07,26,09,25,15.50
2008,07,26,09,26,15.50
2008,07,26,09,27,15.50
2008,07,26,09,28,15.60
2008,07,26,09,29,15.60
2008,07,26,09,30,15.70
2008,07,26,09,31,15.80
2008,07,26,09,32,15.80
2008,07,26,09,33,15.80
2008,07,26,09,34,15.80
2008,07,26,09,35,15.80
2008,07,26,09,36,15.80
2008,07,26,09,37,15.90
2008,07,26,09,38,15.90
2008,07,26,09,39,15.90
2008,07,26,09,40,15.80
2008,07,26,09,41,15.80
2008,07,26,09,42,15.70
2008,07,26,09,43,15.60
2008,07,26,09,44,15.60
2008,07,26,09,45,15.60
2008,07,26,09,46,15.50
2008,07,26,09,47,15.50
2008,07,26,09,48,15.50
2008,07,26,09,49,15.60
2008,07,26,09,50,15.50
2008,07,26,09,51,15.50
2008,07,26,09,52,15.50
2008,07,26,09,53,15.50
2008,07,26,09,54,15.50
2008,07,26,09,55,15.50
2008,07,26,09,56,15.50
2008,07,26,09,57,15.40
2008,07,26,09,58,15.50
2008,07,26,09,59,15.50
2008,07,26,10,00,15.50
2008,07,26,10,01,15.60
2008,07,26,10,02,15.60
2008,07,26,10,03,15.60
2008,07,26,10,04,15.70
2008,07,26,10,05,15.70
2008,07,26,10,06,15.80
2008,07,26,10,07,15.80
2008,07,26,10,08,15.80
2008,07,26,10,09,15.80
2008,07,26,10,10,15.80
2008,07,26,10,11,15.80
2008,07,26,10,12,15.90
2008,07,26,10,13,15.90
2008,07,26,10,14,15.80
2008,07,26,10,15,15.80
2008,07,26,10,16,15.80
2008,07,26,10,17,15.80
2008,07,26,10,18,15.90
2008,07,26,10,19,15.90
2008,07,26,10,20,16.00
2008,07,26,10,21,16.10
2008,07,26,10,22,16.10
2008,07,26,10,23,16.10
2008,07,26,10,24,16.10
2008,07,26,10,25,16.10
2008,07,26,10,26,16.10
2008,07,26,10,27,16.10
2008,07,26,10,28,16.10
2008,07,26,10,29,16.10
2008,07,26,10,30,16.10
2008,07,26,10,31,16.10
2008,07,26,10,32,16.20
2008,07,26,10,33,16.20
2008,07,26,10,34,16.20
2008,07,26,10,35,16.30
2008,07,26,10,36,16.30
2008,07,26,10,37,16.30
2008,07,26,10,38,16.30
2008,07,26,10,39,16.30
2008,07,26,10,40,16.40
2008,07,26,10,41,16.40
2008,07,26,10,42,16.50
2008,07,26,10,43,16.60
2008,07,26,10,44,16.60
2008,07,26,10,45,16.60
2008,07,26,10,46,16.70
2008,07,26,10,47,16.70
2008,07,26,10,48,16.70
2008,07,26,10,49,16.70
2008,07,26,10,50,16.70
2008,07,26,10,51,16.70
2008,07,26,10,52,16.70
2008,07,26,10,53,16.80
2008,07,26,10,54,16.80
2008,07,26,10,55,16.80
2008,07,26,10,56,16.80
2008,07,26,10,57,16.80
2008,07,26,10,58,16.70
2008,07,26,10,59,16.70
2008,07,26,11,00,16.70
2008,07,26,11,01,16.70
2008,07,26,11,02,16.70
2008,07,26,11,03,16.70
2008,07,26,11,04,16.70
2008,07,26,11,05,16.70
2008,07,26,11,06,16.70
2008,07,26,11,07,16.80
2008,07,26,11,08,16.80
2008,07,26,11,09,16.80
2008,07,26,11,10,16.80
2008,07,26,11,11,16.80
2008,07,26,11,12,16.80
2008,07,26,11,13,16.90
2008,07,26,11,14,16.80
2008,07,26,11,15,16.80
2008,07,26,11,16,16.80
2008,07,26,11,17,16.70
2008,07,26,11,18,16.70
2008,07,26,11,19,16.70
2008,07,26,11,20,16.70
2008,07,26,11,21,16.80
2008,07,26,11,22,16.80
2008,07,26,11,23,16.80
2008,07,26,11,24,16.90
2008,07,26,11,25,16.90
2008,07,26,11,26,16.90
2008,07,26,11,27,16.90
2008,07,26,11,28,17.00
2008,07,26,11,29,17.00
2008,07,26,11,30,16.90
2008,07,26,11,31,16.80
2008,07,26,11,32,16.70
2008,07,26,11,33,16.60
2008,07,26,11,34,16.60
2008,07,26,11,35,16.40
2008,07,26,11,36,16.40
2008,07,26,11,37,16.40
2008,07,26,11,38,16.40
2008,07,26,11,39,16.40
2008,07,26,11,40,16.40
2008,07,26,11,41,16.60
2008,07,26,11,42,16.60
2008,07,26,11,43,16.70
2008,07,26,11,44,16.70
2008,07,26,11,45,16.70
2008,07,26,11,46,16.70
2008,07,26,11,47,16.70
2008,07,26,11,48,16.70
2008,07,26,11,49,16.70
2008,07,26,11,50,16.70
2008,07,26,11,51,16.60
2008,07,26,11,52,16.50
2008,07,26,11,53,16.50
2008,07,26,11,54,16.60
2008,07,26,11,55,16.70
2008,07,26,11,56,16.70
2008,07,26,11,57,16.70
2008,07,26,11,58,16.80
2008,07,26,11,59,16.90
2008,07,26,12,00,16.90
2008,07,26,12,01,17.00
2008,07,26,12,02,17.10
2008,07,26,12,03,17.20
2008,07,26,12,04,17.30
2008,07,26,12,05,17.30
2008,07,26,12,06,17.30
2008,07,26,12,07,17.40
2008,07,26,12,08,17.40
2008,07,26,12,09,17.30
2008,07,26,12,10,17.20
2008,07,26,12,11,17.10
2008,07,26,12,12,17.00
2008,07,26,12,13,16.90
2008,07,26,12,14,16.90
2008,07,26,12,15,16.90
2008,07,26,12,16,16.90
2008,07,26,12,17,17.00
2008,07,26,12,18,17.00
2008,07,26,12,19,17.00
2008,07,26,12,20,17.10
2008,07,26,12,21,17.10
2008,07,26,12,22,17.10
2008,07,26,12,23,17.20
2008,07,26,12,24,17.30
2008,07,26,12,25,17.40
2008,07,26,12,26,17.50
2008,07,26,12,27,17.50
2008,07,26,12,28,17.60
2008,07,26,12,29,17.60
2008,07,26,12,30,17.70
2008,07,26,12,31,17.70
2008,07,26,12,32,17.70
2008,07,26,12,33,17.70
2008,07,26,12,34,17.70
2008,07,26,12,35,17.70
2008,07,26,12,36,17.80
2008,07,26,12,37,17.90
2008,07,26,12,38,17.90
2008,07,26,12,39,17.90
2008,07,26,12,40,18.00
2008,07,26,12,41,18.10
2008,07,26,12,42,18.20
2008,07,26,12,43,18.20
2008,07,26,12,44,18.20
2008,07,26,12,45,18.20
2008,07,26,12,46,18.10
2008,07,26,12,47,17.90
2008,07,26,12,48,17.90
2008,07,26,12,49,17.80
2008,07,26,12,50,17.70
2008,07,26,12,51,17.70
2008,07,26,12,52,17.80
2008,07,26,12,53,17.80
2008,07,26,12,54,17.80
2008,07,26,12,55,17.90
2008,07,26,12,56,18.00
2008,07,26,12,57,18.10
2008,07,26,12,58,18.00
2008,07,26,12,59,18.00
2008,07,26,13,00,18.10
2008,07,26,13,01,18.20
2008,07,26,13,02,18.30
2008,07,26,13,03,18.30
2008,07,26,13,04,18.30
2008,07,26,13,05,18.40
2008,07,26,13,06,18.50
2008,07,26,13,07,18.50
2008,07,26,13,08,18.50
2008,07,26,13,09,18.40
2008,07,26,13,10,18.30
2008,07,26,13,11,18.30
2008,07,26,13,12,18.20
2008,07,26,13,13,18.20
2008,07,26,13,14,18.20
2008,07,26,13,15,18.10
2008,07,26,13,16,17.90
2008,07,26,13,17,17.70
2008,07,26,13,18,17.70
2008,07,26,13,19,17.70
2008,07,26,13,20,17.80
2008,07,26,13,21,17.70
2008,07,26,13,22,17.70
2008,07,26,13,23,17.60
2008,07,26,13,24,17.60
2008,07,26,13,25,17.50
2008,07,26,13,26,17.60
2008,07,26,13,27,17.70
2008,07,26,13,28,17.70
2008,07,26,13,29,17.80
2008,07,26,13,30,17.90
2008,07,26,13,31,17.90
2008,07,26,13,32,18.00
2008,07,26,13,33,18.10
2008,07,26,13,34,18.30
2008,07,26,13,35,18.40
2008,07,26,13,36,18.50
2008,07,26,13,37,18.50
2008,07,26,13,38,18.60
2008,07,26,13,39,18.70
2008,07,26,13,40,18.70
2008,07,26,13,41,18.70
2008,07,26,13,42,18.70
2008,07,26,13,43,18.60
2008,07,26,13,44,18.50
2008,07,26,13,45,18.50
2008,07,26,13,46,18.50
2008,07,26,13,47,18.60
2008,07,26,13,48,18.70
2008,07,26,13,49,18.80
2008,07,26,13,50,18.90
2008,07,26,13,51,19.10
2008,07,26,13,52,19.10
2008,07,26,13,53,19.20
2008,07,26,13,54,19.20
2008,07,26,13,55,19.20
2008,07,26,13,56,19.30
2008,07,26,13,57,19.30
2008,07,26,13,58,19.50
2008,07,26,13,59,19.60
2008,07,26,14,00,19.70
2008,07,26,14,01,19.90
2008,07,26,14,02,19.90
2008,07,26,14,03,19.80
2008,07,26,14,04,19.80
2008,07,26,14,05,19.80
2008,07,26,14,06,19.80
2008,07,26,14,07,19.70
2008,07,26,14,08,19.70
2008,07,26,14,09,19.70
2008,07,26,14,10,19.70
2008,07,26,14,11,19.70
2008,07,26,14,12,19.60
2008,07,26,14,13,19.50
2008,07,26,14,14,19.40
2008,07,26,14,15,19.40
2008,07,26,14,16,19.40
2008,07,26,14,17,19.50
2008,07,26,14,18,19.60
2008,07,26,14,19,19.60
2008,07,26,14,20,19.70
2008,07,26,14,21,19.90
2008,07,26,14,22,19.90
2008,07,26,14,23,20.10
2008,07,26,14,24,20.20
2008,07,26,14,25,20.20
2008,07,26,14,26,20.40
2008,07,26,14,27,20.50
2008,07,26,14,28,20.80
2008,07,26,14,29,20.80
2008,07,26,14,30,20.80
2008,07,26,14,31,20.90
2008,07,26,14,32,21.00
2008,07,26,14,33,21.00
2008,07,26,14,34,21.00
2008,07,26,14,35,21.00
2008,07,26,14,36,21.10
2008,07,26,14,37,21.20
2008,07,26,14,38,21.30
2008,07,26,14,39,21.30
2008,07,26,14,40,21.10
2008,07,26,14,41,21.10
2008,07,26,14,42,21.00
2008,07,26,14,43,20.90
2008,07,26,14,44,20.90
2008,07,26,14,45,20.90
2008,07,26,14,46,21.00
2008,07,26,14,47,21.20
2008,07,26,14,48,21.30
2008,07,26,14,49,21.30
2008,07,26,14,50,21.40
2008,07,26,14,51,21.60
2008,07,26,14,52,21.50
2008,07,26,14,53,21.30
2008,07,26,14,54,21.30
2008,07,26,14,55,21.20
2008,07,26,14,56,21.10
2008,07,26,14,57,21.10
2008,07,26,14,58,21.30
2008,07,26,14,59,21.40
2008,07,26,15,00,21.60
2008,07,26,15,01,21.70
2008,07,26,15,02,21.80
2008,07,26,15,03,21.90
2008,07,26,15,04,22.00
2008,07,26,15,05,22.10
2008,07,26,15,06,22.20
2008,07,26,15,07,22.30
2008,07,26,15,08,22.30
2008,07,26,15,09,22.40
2008,07,26,15,10,22.40
2008,07,26,15,11,22.40
2008,07,26,15,12,22.40
2008,07,26,15,13,22.40
2008,07,26,15,14,22.30
2008,07,26,15,15,22.20
2008,07,26,15,16,22.20
2008,07,26,15,17,22.00
2008,07,26,15,18,21.70
2008,07,26,15,19,21.50
2008,07,26,15,20,21.40
2008,07,26,15,21,21.40
2008,07,26,15,22,21.30
2008,07,26,15,23,21.20
2008,07,26,15,24,21.10
2008,07,26,15,25,21.00
2008,07,26,15,26,20.90
2008,07,26,15,27,20.80
2008,07,26,15,28,20.70
2008,07,26,15,29,20.70
2008,07,26,15,30,20.70
2008,07,26,15,31,20.70
2008,07,26,15,32,20.60
2008,07,26,15,33,20.60
2008,07,26,15,34,20.70
2008,07,26,15,35,20.70
2008,07,26,15,36,20.70
2008,07,26,15,37,20.80
2008,07,26,15,38,20.90
2008,07,26,15,39,20.90
2008,07,26,15,40,21.00
2008,07,26,15,41,21.00
2008,07,26,15,42,21.00
2008,07,26,15,43,21.10
2008,07,26,15,44,21.30
2008,07,26,15,45,21.30
2008,07,26,15,46,21.40
2008,07,26,15,47,21.50
2008,07,26,15,48,21.60
2008,07,26,15,49,21.60
2008,07,26,15,50,21.50
2008,07,26,15,51,21.40
2008,07,26,15,52,21.40
2008,07,26,15,53,21.30
2008,07,26,15,54,21.30
2008,07,26,15,55,21.20
2008,07,26,15,56,21.00
2008,07,26,15,57,20.80
2008,07,26,15,58,20.80
2008,07,26,15,59,20.90
2008,07,26,16,00,21.00
2008,07,26,16,01,21.00
2008,07,26,16,02,21.10
2008,07,26,16,03,21.20
2008,07,26,16,04,21.30
2008,07,26,16,05,21.30
2008,07,26,16,06,21.30
2008,07,26,16,07,21.20
2008,07,26,16,08,21.10
2008,07,26,16,09,20.90
2008,07,26,16,10,20.80
2008,07,26,16,11,20.80
2008,07,26,16,12,20.80
2008,07,26,16,13,20.80
2008,07,26,16,14,20.90
2008,07,26,16,15,20.90
2008,07,26,16,16,21.00
2008,07,26,16,17,21.00
2008,07,26,16,18,21.10
2008,07,26,16,19,21.10
2008,07,26,16,20,21.20
2008,07,26,16,21,21.10
2008,07,26,16,22,21.10
2008,07,26,16,23,21.10
2008,07,26,16,24,21.00
2008,07,26,16,25,21.00
2008,07,26,16,26,21.00
2008,07,26,16,27,20.90
2008,07,26,16,28,20.90
2008,07,26,16,29,20.90
2008,07,26,16,30,20.90
2008,07,26,16,31,20.80
2008,07,26,16,32,20.80
2008,07,26,16,33,20.80
2008,07,26,16,34,20.80
2008,07,26,16,35,20.80
2008,07,26,16,36,20.80
2008,07,26,16,37,20.80
2008,07,26,16,38,20.80
2008,07,26,16,39,20.70
2008,07,26,16,40,20.80
2008,07,26,16,41,20.80
2008,07,26,16,42,20.80
2008,07,26,16,43,20.80
2008,07,26,16,44,20.90
2008,07,26,16,45,20.80
2008,07,26,16,46,20.80
2008,07,26,16,47,20.90
2008,07,26,16,48,20.90
2008,07,26,16,49,20.90
2008,07,26,16,50,20.90
2008,07,26,16,51,20.80
2008,07,26,16,52,20.80
2008,07,26,16,53,20.80
2008,07,26,16,54,20.80
2008,07,26,16,55,20.70
2008,07,26,16,56,20.70
2008,07,26,16,57,20.70
2008,07,26,16,58,20.70
2008,07,26,16,59,20.60
2008,07,26,17,00,20.60
2008,07,26,17,01,20.60
2008,07,26,17,02,20.60
2008,07,26,17,03,20.60
2008,07,26,17,04,20.60
2008,07,26,17,05,20.60
2008,07,26,17,06,20.60
2008,07,26,17,07,20.50
2008,07,26,17,08,20.50
2008,07,26,17,09,20.40
2008,07,26,17,10,20.50
2008,07,26,17,11,20.50
2008,07,26,17,12,20.50
2008,07,26,17,13,20.50
2008,07,26,17,14,20.50
2008,07,26,17,15,20.40
2008,07,26,17,16,20.40
2008,07,26,17,17,20.30
2008,07,26,17,18,20.30
2008,07,26,17,19,20.20